EHI
0 0 0 0 0 0 0 0 0 0 0 0 0 0 0 0 0 0 0 0 0 0 0 0 0 0 0 0 0 0 0 0 0 0 0 0 0 0 0 0 0 0 0
0 0 0 0 0 0 0 0 0 0 0 0 0 0 0 0 0 0 0 0 0 0 0 0 0 0 0 0 0 0 0 0 0 0 0 0 0 0 0 0 0 0 0
0 0 0 0 0 0 0 0 0 0 0 0 0 0 0 0 0 0 0 0 0 0 0 0 0 0 0 0 0 0 0 0 0 0 0 0 0 0 0 0 0 0 0
0 0 0 0 0 0 0 0 0 0 0 0 0 0 0 0 0 0 0 0 0 0 0 0 0 0 0 0 0 0 0 0 0 0 0 0 0 0 0 0 0 0 0
0 0 0 0 0 0 0 0 0 0 0 0 0 0 0 0 0 0 0 0 0 0 0 0 0 0 0 0 0 0 0 0 0 0 0 0 0 0 0 0 0 0 0
0 0 0 0 0 0 0 0 0 0 0 0 0 0 0 0 0 0 0 1 1 1 0 0 0 0 0 0 0 0 0 0 0 0 0 0 0 0 0 0 0 0 0
0 0 0 0 0 0 0 0 0 0 0 0 0 0 0 0 0 0 0 1 1 1 0 0 0 0 0 0 0 0 0 0 0 0 0 0 0 0 0 0 0 0 0
0 0 0 0 0 0 0 0 0 0 0 0 0 0 0 0 0 0 0 0 0 0 0 0 0 0 0 0 0 0 0 0 0 0 0 0 0 0 0 0 0 0 0
0 0 0 0 0 0 0 0 0 0 0 0 0 0 0 0 0 0 0 0 0 0 0 0 0 0 0 0 0 0 0 0 0 0 0 0 0 0 0 0 0 0 0
0 0 0 0 0 0 0 0 0 0 0 0 0 0 0 0 0 0 0 0 0 0 0 0 0 0 0 0 0 0 0 0 0 0 0 0 0 0 0 0 0 0 0
0 0 0 0 0 0 0 0 0 0 0 0 0 0 0 0 0 0 0 0 0 0 0 0 0 0 0 0 0 0 0 0 0 0 0 0 0 0 0 0 0 0 0
0 0 0 0 0 0 0 0 0 0 0 0 0 0 0 0 0 0 0 0 0 0 0 0 0 0 0 0 0 0 0 0 0 0 0 0 0 0 0 0 0 0 0
0 0 0 0 0 0 0 0 0 0 0 0 0 0 0 0 0 0 0 0 0 0 0 0 0 0 0 0 0 0 0 0 0 0 0 0 0 0 0 0 0 0 0
0 0 0 0 0 0 0 0 0 0 0 0 0 0 0 0 0 0 0 0 0 0 0 0 0 0 0 0 0 0 0 0 0 0 0 0 0 0 0 0 0 0 0
0 0 0 0 0 0 0 0 0 0 0 0 0 0 0 0 0 0 0 0 0 0 0 0 0 0 0 0 0 0 0 0 0 0 0 0 0 0 0 0 0 0 0
0 0 0 0 0 0 0 0 0 0 0 0 0 0 0 0 0 0 0 0 0 0 0 0 0 0 0 0 0 0 0 0 0 0 0 0 0 0 0 0 0 0 0
0 0 0 0 0 0 0 0 0 0 0 0 0 0 0 0 0 0 0 0 0 0 0 0 0 0 0 0 0 0 0 0 0 0 0 0 0 0 0 0 0 0 0
0 0 0 0 0 0 0 0 0 0 0 0 0 0 0 0 0 0 0 0 0 0 0 0 0 0 0 0 0 0 0 0 0 0 0 0 0 0 0 0 0 0 0
0 0 0 0 0 0 0 0 0 0 0 0 0 0 0 0 0 0 0 0 0 0 0 0 0 0 0 0 0 0 0 0 0 0 0 0 0 0 0 0 0 0 0
0 0 0 0 0 0 0 0 0 0 0 0 0 0 0 0 0 0 0 0 0 0 0 0 0 0 0 0 0 0 0 0 0 0 0 0 0 0 0 0 0 0 0
0 0 0 0 0 0 0 0 0 0 0 0 0 0 0 0 0 0 0 0 0 0 0 0 0 0 0 0 0 0 0 0 0 0 0 0 0 0 0 0 0 0 0
0 0 0 0 0 0 0 0 0 0 0 0 0 0 0 0 0 0 0 0 0 0 0 0 0 0 0 0 0 0 0 0 0 0 0 0 0 0 0 0 0 0 0
0 0 0 0 0 0 0 0 0 0 0 0 0 0 0 0 0 0 0 0 0 0 0 0 0 0 0 0 0 0 0 0 0 0 0 0 0 0 0 0 0 0 0
0 0 0 0 0 0 0 0 0 0 0 0 0 0 0 0 0 0 0 0 0 0 0 0 0 0 0 0 0 0 0 0 0 0 0 0 0 0 0 0 0 0 0
0 0 0 0 0 0 0 0 0 0 0 0 0 0 0 0 0 0 0 0 0 0 0 0 0 0 0 0 0 0 0 0 0 0 0 0 0 0 0 0 0 0 0
0 0 0 0 0 0 0 0 0 0 0 0 0 0 0 0 0 0 0 0 0 0 0 0 0 0 0 0 0 0 0 0 0 0 0 0 0 0 0 0 0 0 0
Wind_Speed
8 7 7 7 7 7 8 8 8 7 6 5 5 4 4 4 3 3 4 5 5 6 5 4 5 5 5 5 6 5 6 4 4 4 3 2 1 2 2 2 2 2 2
7 6 7 7 8 8 8 8 8 8 8 6 5 4 4 3 4 3 4 5 5 5 5 5 5 5 5 6 6 6 4 4 5 4 4 3 3 2 2 2 2 2 2
8 7 7 7 8 8 9 8 8 8 8 7 5 4 3 3 3 4 4 5 5 5 5 5 5 5 5 5 6 6 7 5 5 4 4 4 4 4 3 3 2 2 2
6 6 6 7 7 8 7 8 8 8 8 8 7 8 6 6 6 5 4 5 5 5 5 5 5 5 4 5 5 6 5 7 5 4 3 2 1 3 3 3 3 3 3
5 5 5 5 5 6 6 7 7 8 8 9 9 9 7 6 4 5 5 5 5 5 5 5 5 5 4 5 5 5 5 5 6 5 4 3 2 3 3 3 4 3 2
3 3 2 2 3 3 4 6 7 7 8 9 9 9 9 8 7 7 6 5 4 4 5 5 5 5 4 5 5 5 5 5 5 4 4 4 3 4 3 4 4 3 2
2 2 2 2 2 3 4 5 7 7 7 8 9 9 9 9 8 7 6 6 4 4 5 5 5 5 4 4 4 4 4 5 5 4 3 3 3 2 2 3 3 2 2
1 1 1 1 1 2 3 4 6 7 7 8 8 8 8 6 6 7 6 6 4 4 5 5 5 4 5 5 4 3 3 3 3 3 3 3 2 2 2 3 3 3 2
2 1 1 0 1 1 2 3 4 5 6 7 7 7 7 7 6 6 6 5 4 4 6 5 5 4 4 4 4 3 4 3 3 2 2 2 1 1 2 2 3 3 3
3 2 1 1 1 1 1 1 2 3 5 6 6 5 6 7 6 6 6 6 6 5 6 5 5 5 4 4 4 3 3 3 3 2 3 2 1 1 1 1 1 1 2
3 2 2 1 2 2 2 1 1 2 3 4 5 5 5 6 6 6 6 6 5 6 6 6 5 5 5 5 4 4 4 4 3 3 3 2 2 2 1 1 1 1 1
4 2 2 2 2 2 1 1 1 1 2 3 4 5 5 5 6 6 6 6 6 6 6 6 5 5 5 5 5 5 5 4 4 4 3 3 2 2 2 1 1 1 1
5 3 2 2 2 1 1 0 0 0 1 3 4 4 5 6 6 6 6 6 6 5 5 6 5 5 5 5 5 5 5 4 4 4 4 3 3 3 2 2 1 1 1
5 4 3 2 2 2 1 1 1 1 1 2 3 4 5 5 6 6 6 6 6 6 6 5 5 5 4 5 5 5 4 4 3 3 3 3 3 3 3 2 2 2 1
6 5 4 3 2 2 2 1 1 1 2 2 3 3 3 4 5 5 6 6 6 6 5 5 5 5 4 4 5 5 4 4 3 3 2 2 3 2 2 2 2 2 2
7 6 5 4 3 3 2 2 1 1 2 2 2 2 3 3 4 5 5 6 6 5 5 5 5 5 3 5 6 5 4 4 4 3 3 2 3 3 3 2 2 2 3
7 8 7 6 5 4 3 2 1 1 2 2 2 2 3 3 3 4 5 5 5 6 5 5 5 5 5 7 6 5 4 3 3 3 3 2 2 3 3 3 2 1 1
8 8 7 6 5 4 3 2 1 1 1 2 2 2 3 3 3 4 4 5 5 5 4 4 4 4 5 7 7 6 4 3 3 3 3 3 3 3 3 2 1 1 1
8 8 7 6 5 4 2 1 1 1 2 2 2 2 3 3 3 3 4 4 4 4 4 4 4 4 4 7 7 6 3 3 2 2 3 3 3 4 4 3 2 2 1
7 7 6 5 4 3 2 1 1 2 2 2 2 2 3 3 4 4 3 3 4 4 4 4 4 4 4 6 7 6 3 3 3 2 2 3 4 4 4 4 3 3 3
8 7 5 4 3 2 1 1 1 1 1 1 2 2 2 3 3 3 3 4 4 4 4 4 3 3 4 5 7 7 4 4 3 3 2 2 4 5 5 4 3 3 2
8 6 4 4 3 1 1 1 1 1 1 2 2 2 2 2 3 3 3 3 4 4 4 4 3 2 3 4 6 7 6 5 4 3 3 3 5 5 5 4 4 4 3
7 6 4 4 3 2 1 0 0 1 2 3 3 3 3 2 2 3 4 3 3 3 3 3 3 2 2 3 5 6 6 6 4 3 3 3 4 4 4 4 5 4 3
6 5 4 4 4 3 2 1 0 1 2 3 2 2 3 2 2 2 2 3 3 4 3 3 3 3 3 3 4 4 4 5 4 3 3 4 4 3 3 3 4 3 3
6 5 4 3 3 3 3 2 1 1 2 2 2 2 2 2 2 2 1 2 2 3 3 3 3 4 4 4 4 4 4 4 4 4 3 3 3 3 3 3 3 3 3
6 5 5 4 4 4 3 3 2 1 2 2 1 1 1 2 2 2 2 2 2 2 1 2 2 2 3 4 5 6 6 6 7 5 4 4 4 4 4 4 3 3 3
Wind_Direction
232 220 211 205 202 201 198 194 191 190 184 181 183 184 191 191 195 197 196 198 197 196 197 190 188 191 187 183 181 175 174 173 164 155 149 139 156 179 190 201 196 186 187
223 212 203 197 196 197 197 195 194 188 185 184 182 187 187 194 195 191 194 197 196 196 200 193 189 189 186 184 183 177 174 176 185 180 173 179 182 188 206 200 199 199 181
223 211 199 197 194 194 195 194 193 190 188 184 175 165 167 180 190 193 196 201 198 195 198 197 193 190 190 189 187 185 184 184 192 203 202 195 195 170 173 197 201 197 190
224 214 199 194 195 195 192 193 191 189 187 183 183 180 182 187 198 197 195 194 195 195 194 196 193 190 190 190 191 191 196 194 192 199 227 258 193 179 164 170 192 200 202
215 207 200 198 197 193 190 191 189 188 187 187 190 191 196 195 188 188 190 192 191 190 188 191 191 193 193 191 188 186 194 201 202 197 191 189 202 218 189 178 175 185 205
190 184 177 175 184 182 184 188 188 189 188 191 192 195 194 190 182 185 188 191 186 185 187 191 191 193 193 192 189 188 193 198 203 204 203 195 194 201 201 196 187 186 184
162 158 160 164 167 176 184 188 190 191 189 192 196 198 197 192 190 190 192 191 187 185 187 188 191 190 191 189 185 190 193 196 195 200 204 209 216 201 197 178 180 185 175
97 113 153 177 169 173 183 192 197 197 194 195 197 197 197 195 194 193 191 193 192 189 186 188 187 185 187 185 181 182 188 194 198 202 201 196 200 193 183 174 174 179 188
38 44 48 79 143 150 174 194 202 201 199 196 196 196 195 194 190 188 189 190 190 186 185 184 182 184 185 182 180 181 178 178 183 190 193 200 193 189 189 183 191 190 196
16 22 26 53 84 104 126 169 192 201 199 195 193 194 195 192 187 185 185 185 184 184 181 179 180 182 183 185 186 183 180 179 178 178 179 181 180 177 182 179 200 225 215
9 11 20 47 67 75 93 117 175 185 184 190 192 192 192 190 187 184 185 183 181 182 181 180 181 181 183 186 187 186 181 176 173 171 176 186 182 168 168 159 157 187 209
12 23 40 53 60 56 77 111 138 174 186 188 189 192 188 185 185 184 183 181 182 182 181 182 183 184 185 186 186 183 181 182 180 182 184 190 171 170 177 161 158 178 210
12 18 31 34 38 32 21 146 164 182 198 188 185 188 189 184 186 185 181 180 177 177 179 180 183 185 183 183 185 183 180 181 186 187 189 191 176 176 180 172 169 166 161
4 1 1 1 3 5 353 294 250 228 204 184 183 190 191 187 188 184 179 177 176 177 179 178 179 181 183 183 178 174 174 178 183 185 189 191 184 182 181 174 177 169 162
352 347 345 341 342 341 330 303 259 231 207 182 180 189 190 184 181 179 175 174 176 177 177 176 173 174 180 182 175 174 176 179 177 179 183 178 168 171 178 175 184 179 182
335 334 333 328 319 313 306 294 271 233 212 189 180 180 176 169 166 169 168 169 173 172 173 178 171 169 175 161 167 175 177 181 184 184 177 162 157 145 146 148 168 189 200
329 325 318 313 308 302 292 279 263 223 197 182 171 171 166 156 159 162 162 163 165 166 168 171 171 170 163 153 153 157 171 178 183 182 173 171 160 163 167 155 162 186 249
320 314 310 305 302 297 289 279 247 196 167 162 164 165 155 149 146 155 160 161 160 162 165 167 171 165 158 153 155 154 165 168 177 182 180 184 183 176 168 163 173 207 241
311 307 302 295 291 287 275 244 213 181 171 177 168 166 159 153 152 155 161 161 158 158 162 165 164 166 163 157 159 160 161 161 172 186 192 197 196 177 174 179 184 207 239
318 312 307 300 290 283 252 205 204 189 198 197 172 162 160 161 163 160 155 155 155 156 155 157 165 172 175 167 167 172 172 172 173 180 196 201 205 196 195 204 204 219 236
322 319 314 308 299 281 217 194 200 214 213 169 139 134 141 150 154 151 151 148 150 150 150 152 162 171 173 172 177 181 183 181 183 192 203 201 193 204 208 222 225 224 234
329 330 329 329 329 319 188 179 210 221 154 128 125 125 124 124 129 131 134 141 144 145 150 152 159 169 174 179 179 181 185 190 192 201 206 196 189 201 212 222 217 215 220
334 338 345 352 356 359 30 124 245 165 132 123 121 116 108 113 130 137 142 143 147 151 157 163 168 175 182 177 179 185 185 192 201 202 192 196 197 203 213 211 215 217 218
342 345 356 5 3 5 15 29 37 115 120 120 118 120 120 121 125 137 150 156 162 164 168 172 176 180 189 192 188 184 181 180 189 193 187 195 204 208 213 216 219 226 226
344 349 356 4 4 6 13 16 22 123 121 112 116 128 130 137 135 136 144 166 176 184 182 187 187 188 199 207 200 193 191 191 190 186 196 206 207 207 212 217 220 224 228
350 356 1 4 5 7 10 8 5 69 120 120 125 135 140 142 142 136 106 78 139 140 166 188 200 212 215 200 205 205 201 195 191 198 203 208 213 216 216 219 224 229 233